DO9LL-1 Weather Reports


Display with metric or nautical units.
time (UTC)temp
F
wind
direction
speed
MPH
gust
MPH
rain 1hr
in
rain 24hr
in
rain mn
in
humidity
%
barometer
mb
20260507090230 54 344 0.0 1.0 0.00 0.10 0.00 73 1014.0
20260507085226 55 344 1.0 2.0 0.00 0.10 0.00 75 1014.1
20260507084222 52 282 0.0 1.0 0.00 0.11 0.00 78 1014.0
20260507083217 51 321 1.0 3.0 0.00 0.11 0.00 80 1014.0
20260507082234 50 350 0.0 2.0 0.00 0.11 0.00 84 1014.0
20260507081231 50 344 1.0 6.0 0.00 0.11 0.00 82 1013.9
20260507080227 50 351 1.0 3.0 0.00 0.12 0.00 83 1013.6
20260507075223 50 353 1.0 2.0 0.00 0.12 0.00 84 1013.6
20260507074220 49 345 0.0 2.0 0.00 0.13 0.00 87 1013.5
20260507073221 48 352 1.0 2.0 0.00 0.14 0.00 88 1013.4
20260507072233 48 352 1.0 2.0 0.00 0.15 0.00 88 1013.4
20260507071229 47 352 0.0 1.0 0.00 0.16 0.00 89 1013.4
20260507070224 47 360 1.0 2.0 0.00 0.17 0.00 89 1013.3
20260507065221 46 356 1.0 2.0 0.00 0.18 0.00 90 1013.3
20260507064219 46 315 1.0 3.0 0.00 0.18 0.00 91 1013.2
20260507063234 45 358 0.0 1.0 0.00 0.19 0.00 91 1013.2
20260507062232 45 326 0.0 2.0 0.00 0.20 0.00 92 1013.0
20260507061227 44 355 0.0 1.0 0.00 0.21 0.00 92 1013.0
20260507060224 44 356 0.0 1.0 0.00 0.22 0.00 92 1012.9
20260507055220 44 342 1.0 2.0 0.00 0.22 0.00 93 1012.8
20260507054216 43 347 0.0 2.0 0.00 0.23 0.00 93 1012.8
20260507053233 43 351 0.0 1.0 0.00 0.24 0.00 94 1012.6
20260507052229 43 352 0.0 1.0 0.00 0.26 0.00 94 1012.6
20260507051226 43 342 0.0 2.0 0.00 0.28 0.00 94 1012.5
20260507050223 43 0.0 0.0 0.00 0.30 0.00 94 1012.4
20260507045220 43 0.0 0.0 0.00 0.32 0.00 94 1012.2
20260507044217 43 0.0 0.0 0.00 0.34 0.00 94 1012.1
20260507043233 43 0.0 0.0 0.00 0.35 0.00 94 1012.1
20260507042230 43 331 0.0 1.0 0.00 0.37 0.00 94 1011.9
20260507041226 43 357 0.0 1.0 0.00 0.39 0.00 93 1011.8
20260507040223 44 352 0.0 1.0 0.00 0.41 0.00 93 1011.8
20260507035220 44 359 0.0 1.0 0.00 0.42 0.00 93 1011.8
20260507034219 44 8 0.0 1.0 0.00 0.44 0.00 93 1011.7
20260507033233 44 334 0.0 1.0 0.00 0.45 0.00 93 1011.6
20260507032230 45 7 0.0 1.0 0.00 0.46 0.00 93 1011.6
20260507031228 45 7 0.0 1.0 0.00 0.48 0.00 93 1011.5
20260507030224 45 1 0.0 1.0 0.00 0.49 0.00 93 1011.5
20260507025220 45 356 0.0 1.0 0.00 0.51 0.00 93 1011.4
20260507024217 45 357 0.0 1.0 0.00 0.52 0.00 93 1011.4
20260507023239 45 355 0.0 1.0 0.00 0.54 0.00 93 1011.4
20260507022231 45 0.0 0.0 0.00 0.55 0.00 93 1011.4
20260507021228 45 342 0.0 1.0 0.00 0.56 0.00 94 1011.4
20260507020225 45 0.0 0.0 0.00 0.58 0.00 94 1011.3
20260507015224 45 0.0 0.0 0.00 0.60 0.00 94 1011.3
20260507014219 45 306 0.0 1.0 0.00 0.61 0.00 94 1011.2
20260507013216 45 314 0.0 1.0 0.00 0.63 0.00 94 1011.1
20260507012233 45 0.0 0.0 0.00 0.65 0.00 94 1011.0
20260507011230 45 0.0 0.0 0.00 0.67 0.00 94 1010.9
20260507010231 44 0.0 0.0 0.00 0.69 0.00 94 1010.9
20260507005223 44 0.0 0.0 0.00 0.70 0.00 94 1010.9
20260507004220 44 0.0 0.0 0.00 0.72 0.00 93 1010.9
20260507003217 43 0.0 0.0 0.00 0.73 0.00 93 1010.9
20260507002234 44 0.0 0.0 0.00 0.75 0.00 92 1010.9
20260507001231 44 0.0 0.0 0.00 0.77 0.00 92 1010.8
20260507000227 45 0.0 0.0 0.00 0.78 0.00 91 1010.6
20260506235224 45 348 0.0 1.0 0.00 0.79 0.00 91 1010.7
20260506234222 46 0.0 0.0 0.00 0.80 0.00 90 1010.7
20260506233218 46 0.0 0.0 0.00 0.81 0.00 90 1010.7
20260506232235 46 0.0 0.0 0.00 0.82 0.00 90 1010.6
20260506231236 46 0.0 0.0 0.00 0.83 0.00 90 1010.6
20260506230234 46 0.0 0.0 0.00 0.84 0.00 88 1010.5
20260506225225 47 0.0 0.0 0.00 0.85 0.00 87 1010.5
20260506224222 47 330 0.0 1.0 0.00 0.87 0.00 87 1010.6
20260506223219 47 0.0 0.0 0.00 0.87 0.00 86 1010.5
20260506222216 47 350 0.0 1.0 0.00 0.87 0.00 86 1010.4
20260506221233 47 357 0.0 1.0 0.00 0.87 0.00 86 1010.4
20260506220229 47 345 0.0 1.0 0.00 0.87 0.87 86 1010.4
20260506215227 47 345 0.0 1.0 0.00 0.87 0.87 86 1010.3
20260506214224 47 350 0.0 1.0 0.00 0.88 0.87 87 1010.2
20260506213220 47 1 0.0 1.0 0.00 0.88 0.87 88 1010.2
20260506212217 46 0.0 0.0 0.00 0.88 0.87 89 1010.3
20260506211234 46 0.0 0.0 0.00 0.88 0.87 90 1010.1
20260506210231 46 0.0 0.0 0.00 0.88 0.87 89 1010.2
20260506205228 47 0.0 0.0 0.00 0.88 0.87 87 1010.1
20260506204224 47 357 0.0 1.0 0.00 0.88 0.87 86 1010.1
20260506203221 47 356 0.0 1.0 0.00 0.88 0.87 87 1009.9
20260506202218 47 353 0.0 3.0 0.00 0.88 0.87 88 1009.9
20260506201235 47 0.0 0.0 0.00 0.88 0.87 88 1009.9
20260506200231 47 0.0 0.0 0.00 0.88 0.87 88 1009.9
20260506195230 47 0.0 0.0 0.00 0.88 0.87 86 1009.7
20260506194225 47 344 1.0 1.0 0.00 0.88 0.87 86 1009.7
20260506193222 47 359 0.0 2.0 0.00 0.88 0.87 87 1009.6
20260506192218 47 0.0 0.0 0.00 0.88 0.87 88 1009.5
20260506191236 47 352 1.0 2.0 0.00 0.88 0.87 88 1009.2
20260506190232 47 355 0.0 1.0 0.00 0.88 0.87 89 1009.2
20260506185228 47 351 0.0 1.0 0.00 0.88 0.87 89 1009.2
20260506184225 47 0.0 0.0 0.00 0.88 0.87 89 1009.2
20260506183221 47 0.0 0.0 0.00 0.88 0.87 89 1009.0
20260506182218 48 337 0.0 1.0 0.00 0.88 0.87 90 1008.9
20260506181235 48 358 0.0 1.0 0.00 0.88 0.87 89 1008.8
20260506180231 48 354 0.0 3.0 0.00 0.88 0.87 89 1008.7
20260506175228 47 293 0.0 2.0 0.00 0.88 0.87 89 1008.6
20260506174226 48 340 1.0 4.0 0.00 0.88 0.87 88 1008.5
20260506173222 47 325 1.0 3.0 0.00 0.88 0.87 88 1008.5
20260506172218 47 341 1.0 3.0 0.00 0.88 0.87 89 1008.5
20260506171242 47 299 1.0 3.0 0.00 0.88 0.87 90 1008.4
20260506170232 47 355 1.0 2.0 0.00 0.88 0.87 90 1008.4
20260506165228 47 317 0.0 3.0 0.00 0.88 0.87 90 1008.3
20260506164225 47 332 1.0 2.0 0.00 0.88 0.87 89 1008.3
20260506163222 47 316 1.0 3.0 0.00 0.88 0.87 90 1008.3
20260506162218 47 340 1.0 3.0 0.00 0.88 0.87 90 1008.3
20260506161235 47 276 1.0 4.0 0.00 0.88 0.87 91 1008.4
20260506160232 47 325 1.0 2.0 0.00 0.88 0.87 92 1008.3
20260506155228 47 333 0.0 3.0 0.00 0.88 0.87 92 1008.1
20260506154225 47 11 1.0 3.0 0.00 0.88 0.87 93 1008.2
20260506153222 47 258 1.0 4.0 0.00 0.88 0.87 93 1008.0
20260506152218 48 322 1.0 2.0 0.00 0.88 0.87 94 1007.9
20260506151235 48 333 1.0 3.0 0.00 0.88 0.87 94 1007.8
20260506150233 48 298 1.0 3.0 0.00 0.88 0.87 95 1007.7
20260506145229 48 318 1.0 3.0 0.00 0.88 0.87 95 1007.7
20260506144225 48 324 0.0 2.0 0.00 0.88 0.87 96 1007.6
20260506143223 47 328 0.0 1.0 0.01 0.88 0.87 96 1007.6
20260506142218 47 0.0 0.0 0.02 0.88 0.87 96 1007.7
20260506141235 47 333 0.0 2.0 0.03 0.88 0.87 96 1007.7
20260506140232 47 318 0.0 2.0 0.04 0.88 0.87 95 1007.7
20260506135229 48 334 0.0 2.0 0.04 0.88 0.87 95 1007.6
20260506134227 48 317 1.0 2.0 0.05 0.88 0.87 95 1007.6
20260506133222 48 341 1.0 2.0 0.04 0.87 0.86 95 1007.5
20260506132219 48 312 1.0 3.0 0.04 0.86 0.85 94 1007.6
20260506131215 48 353 1.0 2.0 0.03 0.85 0.84 94 1007.6
20260506130232 48 331 1.0 4.0 0.02 0.84 0.83 94 1007.5
20260506125229 47 331 1.0 3.0 0.02 0.84 0.83 94 1007.3
20260506124225 47 321 1.0 2.0 0.01 0.83 0.82 94 1007.3
20260506123222 48 342 1.0 3.0 0.02 0.83 0.82 94 1007.2
20260506122219 48 352 0.0 1.0 0.01 0.82 0.81 95 1007.2
20260506121216 48 357 0.0 2.0 0.02 0.82 0.81 95 1007.1
20260506120233 48 332 0.0 2.0 0.02 0.82 0.81 95 1007.1
20260506115229 48 343 0.0 2.0 0.03 0.82 0.81 95 1007.0
20260506114225 48 347 1.0 2.0 0.03 0.82 0.81 94 1007.0
20260506113216 47 0.0 0.0 0.02 0.81 0.80 95 1007.1
20260506112218 47 327 1.0 3.0 0.03 0.81 0.80 94 1007.0
20260506111235 47 333 1.0 2.0 0.02 0.80 0.79 94 1007.1
20260506110231 47 289 1.0 6.0 0.02 0.80 0.79 94 1006.9
20260506105230 47 326 1.0 2.0 0.01 0.79 0.78 94 1006.9
20260506104225 46 353 1.0 6.0 0.01 0.79 0.78 95 1006.8
20260506103222 46 319 1.0 3.0 0.01 0.79 0.78 95 1006.8
20260506102218 46 329 0.0 2.0 0.00 0.78 0.77 95 1006.8
20260506101237 46 308 1.0 4.0 0.00 0.78 0.77 95 1006.6
20260506100232 46 313 1.0 4.0 0.00 0.78 0.77 95 1006.6
20260506095228 46 343 1.0 2.0 0.00 0.78 0.77 95 1006.6
20260506094226 45 314 1.0 4.0 0.01 0.78 0.77 95 1006.5
20260506093222 45 317 1.0 3.0 0.01 0.78 0.77 96 1006.5
20260506092218 45 330 1.0 3.0 0.01 0.78 0.77 96 1006.4
20260506091235 45 343 1.0 4.0 0.01 0.78 0.77 96 1006.4